Location: Newark
(42.0333°N, 13.0667°E)
Time: 11:19:13
(UTC+00:00)

ISS - Pass Details

Date: 22 November 2019
Orbit: 411 x 421 km, 51.6° (Epoch: 16 December)

Event Time Altitude Azimuth Distance (km) Brightness Sun altitude
Rises 17:22:27 0° 227° (SW) 2,344 1.0 -18.5°
Reaches altitude 10° 17:24:33 10° 224° (SW) 1,487 -0.2 -18.9°
Enters shadow 17:27:48 64° 149° (SSE) 467 -3.7 -19.5°
